sat.trackr.live / text

‹ back to catalog

KANOPUS-V 4

NORAD 43181 · 2018-014B

PAYLOAD ACTIVE UNKNOWN

§ Identity

Operator
Country
CIS
Launch date
2018-02-01
Launch site
VOSTO
Launch vehicle
Mass (kg)
RCS (m²)

External: N2YO · Heavens-Above · Gunter

§ Orbital elements

Epoch: 2026-09-20T04:50:33.887904Z

Period
94.59 min
Inclination
97.3482°
Eccentricity
0.0001850
Mean motion
15.22365428 rev/d
Perigee alt
497.4 km
Apogee alt
500.0 km
Semi-major
6,876.8 km
B*
6.8173e-5
RAAN
166.8716°
Arg perigee
84.2999°
Mean anomaly
275.8449°
Rev number
47,919

§ Raw data

KANOPUS-V 41 43181U 18014B   26263.20178111  .00001505  00000+0  68173-4 0  99902 43181  97.3482 166.8716 0001850  84.2999 275.8449 15.22365428479199

JSON: /api/v1/satellites/43181 · /tle

For live sub-satellite position, see the globe view (requires WebGL).

§ Visibility from observer

Set your observer location to see the next 7 days of passes ≥ 10°. The values pass through the URL so the page stays shareable.

No JS? Fill the form by hand. The geolocation button needs JavaScript.